Location: Azul
(36.7830°S, 59.8500°W)
Time: 02:26:21
(UTC-03:00)

ISS - Pass Details

Date: 27 November 2020
Orbit: 418 x 420 km, 51.6° (Epoch: 04 December)

Event Time Altitude Azimuth Distance (km) Brightness Sun altitude
Exits shadow 04:47:51 12° 290° (WNW) 1,418 -1.7 -8.9°
Maximum altitude 04:50:54 45° 217° (SW) 593 -3.0 -8.4°
Drops below altitude 10° 04:54:13 10° 142° (SE) 1,532 0.5 -7.8°
Sets 04:56:24 0° 135° (SE) 2,403 2.2 -7.5°
